Погода в Сату-Маре

Румыния     47°47′11″N   22°53′20″E
темп.,
°C
ветер,
м/с
пор.,
м/с
влажн.,
%
обл.,
%
осадки,
мм/ч
давл.,
гПа
погр.,
м
12 мая, ср
ср1200:00+15вюв34850 0.0 101145
03:00+14вюв411820 0.0 1010197
06:00+14вюв512680 0.0 1009308
09:00+17юв511660 0.0 1009439
12:00+21юв68560 0.0 1007689
15:00+23юв55533 0.0 10061082
18:00+23ююв35610 0.0 10041019
21:00+16юз51193100 1.5 1004327
13 мая, чт
чт1300:00+14юв2397100 4.1 100574
03:00+14ю3896100 6.0 1004301
06:00+13ююз3896100 13.1 1004449
09:00+13ююз4896100 18.9 1004528
12:00+13ююз3895100 5.4 1005549
15:00+17юз677894 8.2 10041084
18:00+16юз368260 2.2 1004485
21:00+13ю338713 3.3 100432
14 мая, пт
пт1400:00+11ю349337 0.0 100567
03:00+11ююз259599 0.4 1006151
06:00+11юз3895100 0.5 1006474
09:00+12юз478757 0.6 1008575
12:00+12зюз4886100 0.3 1010660
15:00+12зюз4989100 0.4 1010510
18:00+15зюз357045 0.0 10101141
21:00+12ююз3386100 0.3 101047
15 мая, сб
сб1500:00+11юз2289100 0.0 101120
03:00+10юз1188100 0.0 101211
06:00+8ююз119145 0.0 101210
09:00+11ююз1285100 0.0 1013132
12:00+14ююв127446 0.0 1013636
15:00+17с116687 0.1 10111087
18:00+17с1166100 0.1 1011766
21:00+13с228081 0.1 101010
16 мая, вс
вс1600:00+11с11878 0.0 101011
03:00+10с2291100 0.0 101015
06:00+9сз1192100 0.0 100912
09:00+13з118297 0.0 1010216
12:00+18зюз116710 0.0 1010855
15:00+20юз126291 0.8 10091242
18:00+20ююв236325 1.5 10091047
21:00+15ю228196 2.1 101019